EW9965 Weather Reports


time (UTC)temp
C
wind
direction
speed
KPH
gust
KPH
rain 1hr
cm
rain 24hr
cm
rain mn
cm
humidity
%
barometer
mb
20260508093026 15 132 1.6 6.4 0.00 0.00 0.00 87 1015.5
20260508091535 15 122 1.6 8.0 0.00 0.00 0.00 86 1015.5
20260508090022 15 139 0.0 4.8 0.00 0.00 0.00 86 1015.6
20260508084521 15 109 0.0 6.4 0.00 0.00 0.00 86 1015.7
20260508083029 16 101 1.6 6.4 0.00 0.00 0.00 86 1015.8
20260508081518 16 115 4.8 8.0 0.00 0.00 0.00 86 1016.1
20260508080016 16 105 4.8 8.0 0.00 0.00 0.00 86 1016.3
20260508074515 16 91 3.2 8.0 0.00 0.00 0.00 86 1016.3
20260508073016 16 45 0.0 6.4 0.00 0.00 0.00 86 1016.3
20260508071515 16 51 0.0 6.4 0.00 0.00 0.00 85 1016.4
20260508070014 16 95 0.0 0.0 0.00 0.00 0.00 85 1016.6
20260508064516 16 258 0.0 6.4 0.00 0.00 0.00 85 1016.6
20260508063009 16 126 3.2 8.0 0.00 0.00 0.00 85 1016.7
20260508061509 16 139 4.8 9.7 0.00 0.00 0.00 85 1016.7
20260508060110 16 97 3.2 8.0 0.00 0.00 0.00 85 1016.6
20260508054508 16 159 3.2 11.3 0.00 0.00 0.00 84 1016.6
20260508053007 16 166 3.2 9.7 0.00 0.00 0.00 84 1016.7
20260508051506 16 157 1.6 9.7 0.00 0.00 0.00 83 1016.7
20260508050007 16 188 3.2 9.7 0.00 0.00 0.00 82 1016.6
20260508044505 16 195 1.6 8.0 0.00 0.00 0.00 81 1016.4
20260508043005 17 238 0.0 9.7 0.00 0.00 0.00 80 1016.2
20260508041508 17 197 0.0 8.0 0.00 0.00 0.00 78 1015.9
20260508040005 17 180 1.6 8.0 0.00 0.00 0.00 77 1015.7
20260508034502 18 166 6.4 12.9 0.00 0.00 0.00 75 1015.7
20260508033004 18 205 0.0 6.4 0.00 0.00 0.00 74 1015.4
20260508031503 19 197 1.6 11.3 0.00 0.00 0.00 72 1015.2
20260508030119 19 196 1.6 14.5 0.00 0.00 0.00 70 1015.0
20260508024603 20 190 3.2 12.9 0.00 0.00 0.00 69 1014.7
20260508023100 20 165 6.4 12.9 0.00 0.00 0.00 68 1014.4
20260508021559 21 176 4.8 14.5 0.00 0.00 0.00 67 1014.2
20260508020107 21 171 1.6 14.5 0.00 0.00 0.00 65 1014.1
20260508014558 22 159 6.4 14.5 0.00 0.00 0.00 64 1014.1
20260508013057 22 149 9.7 16.1 0.00 0.00 0.00 63 1014.0
20260508011556 23 209 9.7 16.1 0.00 0.00 0.00 60 1014.1
20260508004554 25 197 6.4 16.1 0.00 0.00 0.00 57 1014.0
20260508003102 25 243 6.4 14.5 0.00 0.00 0.00 55 1014.0
20260508001556 25 207 4.8 12.9 0.00 0.00 0.00 55 1013.9
20260508000051 25 190 3.2 16.1 0.00 0.00 0.00 55 1013.7
20260507234549 26 260 6.4 17.7 0.00 0.00 0.00 54 1013.9
20260507233048 26 179 8.0 16.1 0.00 0.00 0.00 54 1013.9
20260507231548 26 144 6.4 14.5 0.00 0.00 0.00 53 1013.9
20260507230104 26 253 4.8 16.1 0.00 0.00 0.00 54 1013.8
20260507224546 26 177 9.7 17.7 0.00 0.00 0.00 53 1013.9
20260507223132 26 216 4.8 14.5 0.00 0.00 0.00 53 1013.9
20260507221544 26 193 8.0 16.1 0.00 0.00 0.00 52 1013.9
20260507220043 26 194 9.7 17.7 0.00 0.00 0.00 53 1014.0
20260507214551 26 149 11.3 17.7 0.00 0.00 0.00 53 1014.2
20260507213041 26 144 6.4 17.7 0.00 0.00 0.00 52 1014.3
20260507211539 27 234 6.4 19.3 0.00 0.00 0.00 51 1014.4
20260507210043 26 238 6.4 17.7 0.00 0.00 0.00 53 1014.4
20260507204541 26 157 16.1 24.1 0.00 0.00 0.00 53 1014.6
20260507203040 27 229 6.4 16.1 0.00 0.00 0.00 51 1014.6
20260507201539 27 186 4.8 17.7 0.00 0.00 0.00 51 1014.6
20260507200049 26 149 9.7 19.3 0.00 0.00 0.00 52 1014.7
20260507194531 26 224 4.8 14.5 0.00 0.00 0.00 50 1014.7
20260507193041 26 272 6.4 11.3 0.00 0.00 0.00 50 1014.8
20260507191527 26 223 0.0 12.9 0.00 0.00 0.00 52 1014.9
20260507190032 24 355 3.2 11.3 0.00 0.00 0.00 52 1015.2
20260507184520 24 249 4.8 12.9 0.00 0.00 0.00 52 1015.4
20260507183031 23 208 4.8 11.3 0.00 0.00 0.00 53 1015.5
20260507181513 23 286 3.2 12.9 0.00 0.00 0.00 56 1015.6
20260507180009 22 216 3.2 11.3 0.00 0.00 0.00 59 1015.7
20260507174506 22 245 4.8 12.9 0.00 0.00 0.00 60 1016.0
20260507173005 21 247 1.6 9.7 0.00 0.00 0.00 63 1016.0
20260507171604 20 149 1.6 9.7 0.00 0.00 0.00 63 1016.1
20260507170055 19 132 3.2 11.3 0.00 0.00 0.00 67 1016.2
20260507164551 19 179 6.4 12.9 0.00 0.00 0.00 70 1016.4
20260507163046 19 95 3.2 11.3 0.00 0.00 0.00 68 1016.6
20260507161551 18 149 1.6 8.0 0.00 0.00 0.00 73 1016.6
20260507160041 17 251 4.8 9.7 0.00 0.00 0.00 74 1016.6
20260507154533 17 250 3.2 11.3 0.00 0.00 0.00 76 1016.8
20260507153034 16 74 0.0 8.0 0.00 0.00 0.00 79 1016.6
20260507151527 16 255 3.2 9.7 0.00 0.00 0.00 85 1016.5
20260507150020 15 261 0.0 3.2 0.00 0.00 0.00 88 1016.5
20260507144522 14 53 0.0 0.0 0.00 0.00 0.00 89 1016.5
20260507143011 13 70 0.0 0.0 0.00 0.00 0.00 90 1016.5
20260507141507 12 16 0.0 0.0 0.00 0.00 0.00 91 1016.6
20260507140002 11 14 0.0 0.0 0.00 0.00 0.00 90 1016.4
20260507134604 11 43 0.0 0.0 0.00 0.00 0.00 90 1016.4
20260507133056 11 32 0.0 0.0 0.00 0.00 0.00 90 1016.4
20260507131553 11 32 0.0 0.0 0.00 0.00 0.00 89 1016.5
20260507130103 11 357 0.0 0.0 0.00 0.00 0.00 89 1016.2
20260507124613 11 1 0.0 0.0 0.00 0.00 0.00 89 1016.1
20260507123105 11 20 0.0 0.0 0.00 0.00 0.00 88 1016.0
20260507121558 11 27 0.0 0.0 0.00 0.00 0.00 88 1016.0
20260507120048 11 27 0.0 0.0 0.00 0.00 0.00 88 1016.1
20260507114550 11 27 0.0 0.0 0.00 0.00 0.00 88 1016.0
20260507113045 11 27 0.0 0.0 0.00 0.00 0.00 87 1016.0
20260507111543 11 27 0.0 0.0 0.00 0.00 0.00 87 1016.0
20260507110042 11 27 0.0 0.0 0.00 0.00 0.00 87 1016.1
20260507104540 11 27 0.0 0.0 0.00 0.00 0.00 87 1016.1
20260507103038 12 27 0.0 0.0 0.00 0.00 0.00 87 1016.2
20260507101541 12 27 0.0 0.0 0.00 0.00 0.00 86 1016.4
20260507100047 12 27 0.0 0.0 0.00 0.00 0.00 86 1016.5
20260507094533 12 27 0.0 0.0 0.00 0.00 0.00 86 1016.5